Location: Pasadena, ca
(34.1243°N, 118.1037°W)
Time: 00:53:03
(UTC-08:00)

Vanguard 2 - Visible Passes

Search period start: 22 February 2018 00:00
Search period end: 04 March 2018 00:00
Orbit: 553 x 2939 km, 32.9° (Epoch: 20 February)

Date Brightness Start Highest point End Pass type
(mag) Time Alt. Az. Time Alt. Az. Time Alt. Az.
22 Feb 7.9 19:37:47 10° W 19:46:39 77° S 19:47:37 64° SE visible
23 Feb 8.0 19:56:10 10° W 20:04:43 68° SSW 20:04:50 68° S visible
24 Feb 8.9 18:01:37 10° W 18:13:36 84° S 18:20:30 10° E visible
24 Feb 8.5 20:14:34 10° W 20:22:03 54° SW 20:22:03 54° SW visible
25 Feb 8.8 18:20:06 10° W 18:31:48 82° S 18:37:52 14° E visible
25 Feb 9.1 20:33:00 10° W 20:39:18 39° WSW 20:39:18 39° WSW visible
26 Feb 8.8 18:38:34 10° W 18:49:57 77° SSW 18:55:07 19° ESE visible
26 Feb 9.6 20:51:34 10° W 20:56:33 28° WSW 20:56:33 28° WSW visible
27 Feb 8.8 18:57:02 10° W 19:08:02 68° SSW 19:12:24 24° ESE visible
27 Feb 10.2 21:10:24 10° W 21:13:50 19° WSW 21:13:50 19° WSW visible
28 Feb 9.0 19:15:30 10° W 19:26:00 57° SSW 19:29:43 28° SE visible
28 Feb 10.6 21:29:53 10° WSW 21:31:09 12° WSW 21:31:09 12° WSW visible
01 Mar 9.2 19:34:02 10° W 19:43:51 45° SSW 19:47:02 28° SSE visible
02 Mar 9.5 19:52:41 10° W 20:01:31 34° SW 20:04:24 25° S visible
03 Mar 9.5 17:57:14 10° W 18:10:46 67° SSW 18:18:43 10° ESE visible
03 Mar 9.9 20:11:36 10° W 20:19:04 24° SW 20:21:49 20° SSW visible
